Flag for Greenland Weather past 2 weeks in Ittoqqortoormiit, Greenland

Now
17 °F

Light snow. Scattered clouds.


Feels Like: -1 °F
Forecast: -6 / 19 °F
Wind: 23 mph from North

Location: Scoresbysund


UV Index: 0 (Low)

Visibility: 2 mi


Pressure: 29.57 "Hg

Humidity: 69%

Dew point: 8 °F

Location of IttoqqortoormiitLocation

Historic Weather in Ittoqqortoormiit

°F

Ittoqqortoormiit temperature yesterday

Maximum temperature yesterday: 25 °F (at 12:00 PM)
Minimum temperature yesterday: 12 °F (at 6:00 AM)
Average temperature yesterday: 20 °F

Past Weeks' High & Low Weather Summary

 TemperatureHumidityPressure
High28 °F (Apr 2, 1:00 PM)98% (Apr 3, 4:00 PM)30.32 "Hg (Apr 3, 4:00 PM)
Low-8 °F (Apr 14, 7:00 AM)28% (Apr 1, 3:00 PM)29.32 "Hg (Apr 15, 1:00 PM)
Average14 °F76%29.79 "Hg
* Reported Apr 1 10:00 AM — Apr 16 10:00 AM, Ittoqqortoormiit, Weather by CustomWeather, © 2014

Note: Actual official high and low records may vary slightly from our data, if they occured in-between our weather recording intervals... More about our weather records

Advertising

Historic Weather Conditions — Data for Previous 24 hours

 ConditionsComfort  
Time TempWeatherWind HumidityBarometerVisibility
10:00 AM
Apr 16
16 °FLight snow. Overcast.24 mph78%29.55 "Hg1 mi
9:00 AM16 °FSnow. Overcast.35 mph84%29.47 "Hg0 mi
8:00 AM17 °FLight snow. Overcast.28 mph82%29.47 "Hg1 mi
7:00 AM17 °FLight snow. Ice fog.25 mph86%29.44 "Hg1 mi
6:00 AM17 °FLight snow. Low clouds.12 mph86%29.41 "Hg2 mi
5:00 AM18 °FLight snow. Overcast.16 mph84%29.38 "Hg6 mi
4:00 AM17 °FLight snow. Ice fog.17 mph87%29.38 "Hg1 mi
3:00 AM18 °FHeavy snow. Ice fog.1 mph95%29.35 "Hg1 mi
2:00 AM18 °FLight snow. Overcast.1 mph95%29.35 "Hg2 mi
1:00 AM18 °FLight snow. Overcast.3 mph95%29.32 "Hg2 mi
12:00 AM18 °FLight snow. Overcast.1 mph96%29.32 "Hg2 mi
9:00 PM
Apr 15
18 °FSnow flurries. Overcast.7 mph91%29.32 "Hg2 mi
8:00 PM18 °FLight snow. Overcast.8 mph89%29.32 "Hg6 mi
7:00 PM21 °FLight snow. Overcast.2 mph90%29.32 "Hg4 mi
6:00 PM23 °FLight snow. Overcast.1 mph87%29.32 "Hg2 mi
5:00 PM21 °FLight snow. Overcast.5 mph90%29.32 "Hg2 mi
4:00 PM22 °FLight snow. Ice fog.10 mph87%29.32 "Hg2 mi
3:00 PM24 °FLight snow. Low clouds.3 mph89%29.32 "Hg2 mi
2:00 PM24 °FLight snow. Overcast.3 mph87%29.32 "Hg2 mi
1:00 PM24 °FLight snow. Overcast.2 mph89%29.32 "Hg1 mi
12:00 PM25 °FLight snow. Overcast.1 mph87%29.35 "Hg2 mi
Weather by CustomWeather, © 2014

See weather overview